Flag Weather past 2 weeks in Oberlin, Ohio, U.S.A.

Now
21 °F

Overcast.


Feels Like: 13 °F
Forecast: 20 / 29 °F
Wind: 6 mph from Northwest

Location: Lorain County Regional Airport

Current Time: Nov 28, 2014 at 10:17:24 AM

Latest Report: Nov 28, 2014 at 9:53 AM


Visibility: 10 mi

Pressure: 30.40 "Hg

Humidity: 68%

Dew point: 12 °F

Location of OberlinLocation

Historic Weather in Oberlin — Graph

°F

Oberlin temperature yesterday

Maximum temperature yesterday: 33 °F (at 12:53 AM)
Minimum temperature yesterday: 28 °F (at 9:01 PM)
Average temperature yesterday: 31 °F

Past Weeks' High & Low Weather Summary

 TemperatureHumidityPressure
High61 °F (Nov 24, 9:53 AM)100% (Nov 16, 8:53 PM)30.53 "Hg (Nov 16, 8:53 PM)
Low10 °F (Nov 18, 5:53 AM)52% (Nov 15, 3:53 PM)29.20 "Hg (Nov 24, 2:53 AM)
Average30 °F74%30.07 "Hg
* Reported Nov 13 8:53 AM — Nov 28 8:53 AM, Oberlin, Weather by CustomWeather, © 2014

Note: Actual official high and low records may vary slightly from our data, if they occured in-between our weather recording intervals... More about our weather records

Advertising

Oberlin weather history for previous 24 hours

 ConditionsComfort  
Time TempWeatherWind HumidityBarometerVisibility
8:53 AM
Nov 28
18 °FPartly sunny.7 mph74%30.40 "Hg10 mi
7:53 AM15 °FOvercast.7 mph77%30.39 "Hg10 mi
6:53 AM15 °FPassing clouds.8 mph80%30.39 "Hg10 mi
5:53 AM18 °FOvercast.7 mph77%30.37 "Hg10 mi
4:53 AM22 °FMostly cloudy.13 mph66%30.37 "Hg10 mi
3:53 AM22 °FPassing clouds.15 mph68%30.35 "Hg10 mi
2:53 AM23 °FPartly cloudy.12 mph65%30.34 "Hg10 mi
1:53 AM26 °FOvercast.20 mph66%30.32 "Hg10 mi
12:53 AM27 °FMostly cloudy.9 mph72%30.30 "Hg10 mi
11:53 PM
Nov 27
28 °FMostly cloudy.10 mph72%30.30 "Hg10 mi
10:53 PM28 °FLight snow. Ice fog.8 mph93%30.29 "Hg1 mi
10:04 PM28 °FLight snow. Ice fog.3 mph89%30.26 "Hg3 mi
9:53 PM28 °FLight snow. Ice fog.7 mph93%30.28 "Hg1 mi
9:01 PM28 °FLight snow. Ice fog.12 mph93%30.24 "Hg2 mi
7:53 PM30 °FPassing clouds.10 mph82%30.24 "Hg10 mi
6:53 PM30 °FOvercast.13 mph85%30.24 "Hg9 mi
5:53 PM30 °FLight snow. Ice fog.7 mph85%30.23 "Hg5 mi
4:53 PM31 °FLight snow. Mostly cloudy.9 mph79%30.22 "Hg4 mi
3:53 PM31 °FLight snow. Mostly cloudy.9 mph76%30.20 "Hg7 mi
2:53 PM31 °FMostly cloudy.13 mph69%30.19 "Hg10 mi
1:53 PM31 °FPartly sunny.14 mph67%30.17 "Hg10 mi
12:53 PM31 °FMostly cloudy.15 mph69%30.18 "Hg10 mi
12:02 PM31 °FOvercast.15 mph67%30.16 "Hg10 mi
10:53 AM30 °FMore clouds than sun.15 mph69%30.19 "Hg10 mi
Weather by CustomWeather, © 2014

See weather overviewHow to use our weather pages